ALOS (DAICHI) (28931 NORAD) Tracking and Keplerian Element Data

This shows tracking and keplerian element data for the satellite.

Feedback or suggestion? Click here.




ElementValue
Catalog28931
NameALOS (DAICHI)
Epoch Orbit66489
Epoch Day196.14316791
Epoch Year2018
RAAN208.2417
Inclination97.8177
Eccentricity0.0001621
Argument of Perigee109.1823
Mean Anonmoly250.9531
Mean Motion14.62510255
Decay Rate1.15E-06
L11 28931U 06002A 18196.14316791 .00000115 00000-0 31181-4 0 9993
L22 28931 97.8177 208.2417 0001621 109.1823 250.9531 14.62510255664891

Live tracking and technical data element details for ALOS (DAICHI) (NORAD 28931). ALOS (DAICHI) can be tracked NOW for your location showing map with azimuth and elevation plus other details from your city location.

Track the satellite on the map from your city or location and see movement details for azimuth, elevation, latitude, longitude, range, height, and movement on the map or in text.







IsCatalogInMostPopularTable: catalog: 28931, numindb: 26
Update: records affected: 1



GetName: 28931 ALOS (DAICHI)

Hit Count: updated at: Sun, 15 Jul 2018 22:57:47 GMT